IRIDIUM 131 (43079 NORAD) Tracking and Keplerian Element Data

This shows tracking and keplerian element data for the satellite.

Feedback or suggestion? Click here.




ElementValue
Catalog43079
NameIRIDIUM 131
Epoch Orbit424
Epoch Day21.3516322
Epoch Year2018
RAAN164.4819
Inclination86.4005
Eccentricity0.0001935
Argument of Perigee89.6474
Mean Anonmoly270.4943
Mean Motion14.34217693
Decay Rate7.2E-07
L11 43079U 17083K 18021.35163220 .00000072 00000-0 18700-4 0 9995
L22 43079 86.4005 164.4819 0001935 89.6474 270.4943 14.34217693 4246

Live tracking and technical data element details for IRIDIUM 131 (NORAD 43079). IRIDIUM 131 can be tracked NOW for your location showing map with azimuth and elevation plus other details from your city location.

Track the satellite on the map from your city or location and see movement details for azimuth, elevation, latitude, longitude, range, height, and movement on the map or in text.







IsCatalogInMostPopularTable: catalog: 43079, numindb: 168
Update: records affected: 1



GetName: 43079 IRIDIUM 131

Hit Count: updated at: Mon, 19 Nov 2018 13:15:51 GMT